Skip Page Navigation
NASA JPL Caltech
NASA Logo - Jet Propulsion Laboratory + View the NASA Portal
+ Center for Near-Earth Object Studies
JPL Home Earth Solar System Stars & Galaxies Technology
JPL Solar System Dynamics
BODIES ORBITS EPHEMERIDES TOOLS PHYSICAL DATA DISCOVERY FAQ SITE MAP
JPL Small-Body Database Browser
Search: [ help ]  
214696 (2006 SD295)
Classification: Main-belt Asteroid          SPK-ID: 2214696
Ephemeris | Orbit Diagram | Orbital Elements | Mission Design | Physical Parameters | Discovery Circumstances ]

[ show orbit diagram ]
Orbital Elements at Epoch 2459000.5 (2020-May-31.0) TDB
Reference: JPL 13 (heliocentric ecliptic J2000)
 Element Value Uncertainty (1-sigma)   Units 
e .02056856837337653 4.7958e-08  
a 2.734376240527495 2.7551e-08 au
q 2.678134035865669 1.4282e-07 au
i 4.683866873653671 6.5917e-06 deg
node 190.9708056607118 6.5664e-05 deg
peri 244.4140295441325 0.00021976 deg
M 302.1533405675145 0.00021407 deg
tp 2459265.875984163576
(2021-Feb-20.37598416)
0.00098421 TDB
period 1651.527594439388
4.52
2.4961e-05
6.834e-08
d
yr
n .2179800090607643 3.2945e-09 deg/d
Q 2.79061844518932 2.8118e-08 au
  Orbit Determination Parameters
   # obs. used (total)      230  
   data-arc span      6028 days (16.50 yr)  
   first obs. used      2004-01-29  
   last obs. used      2020-07-31  
   planetary ephem.      DE431  
   SB-pert. ephem.      SB431-N16  
   condition code      0  
   norm. resid. RMS      .60335  
   source      ORB  
   producer      Otto Matic  
   solution date      2020-Aug-25 15:09:46  

Additional Information
 Earth MOID = 1.69578 au 
 Jupiter MOID = 2.24508 au 
 T_jup = 3.348 
[ show covariance matrix ]

Ephemeris | Orbit Diagram | Orbital Elements | Mission Design | Physical Parameters | Discovery Circumstances ]

Physical Parameter Table
Parameter Symbol Value Units Sigma Reference Notes
absolute magnitude H 16.5   n/a MPO440133  
diameter diameter 2.733 km 0.893 urn:nasa:pds:neowise_diameters_albedos::2.0[mainbelt] (http://adsabs.harvard.edu/abs/2011ApJ...741...68M)  
geometric albedo albedo 0.054   0.040 urn:nasa:pds:neowise_diameters_albedos::2.0[mainbelt] (http://adsabs.harvard.edu/abs/2011ApJ...741...68M)  

214696 (2006 SD295)          Discovered 2006-Sep-25 by Spacewatch at Kitt Peak
Reference: 20090509/Numbers.arcLast Updated: 2009-05-11

Alternate Designations
 2006 SD295 = 2004 BJ102 
Ephemeris | Orbit Diagram | Orbital Elements | Mission Design | Physical Parameters | Discovery Circumstances ]
ABOUT SSD CREDITS/AWARDS PRIVACY/COPYRIGHT GLOSSARY LINKS
FirstGov 2020-Sep-23 21:22 UT
(server date/time)  
NASA Home Page
Site Manager:   Ryan S. Park
Webmaster  Alan B. Chamberlin